Theta_e
331 328 327 329 327 324 328 331 333 339 338 329 326 328 326 327 333 336 334 334 336 333 333 334 337 337 340 345 344 343 341 344 345 344 345 342 338 341 342 340 340 337 336 335 334 336 337 337 337 338 340 341 342 341 341 341 341 340 340 338 337 335 332 331 331 329 329 330 330 329 330 330 331 331 331 332 332 332 332 332 332 332 332 331 330 328 329 330 329 329 329 329 329 328 327 328 328
330 328 328 329 327 323 330 337 335 339 340 326 322 329 330 338 340 337 337 336 336 334 334 335 340 342 339 341 341 345 344 340 340 341 339 337 340 342 341 341 340 337 336 335 333 333 334 336 334 335 338 340 340 341 341 341 341 340 340 339 337 335 332 331 331 330 329 330 329 330 331 331 332 331 332 332 332 332 332 332 332 332 331 331 330 329 328 328 328 328 328 327 327 326 327 327 327
329 328 329 329 327 325 337 344 333 336 338 324 324 331 333 339 340 337 336 335 335 334 336 336 339 338 338 346 344 347 345 339 339 339 337 338 341 341 341 341 339 338 336 335 334 332 332 333 332 330 334 338 339 340 341 341 341 340 341 339 337 335 333 332 333 331 330 330 329 330 331 331 332 332 332 331 331 332 332 332 331 332 331 331 330 330 329 328 327 327 327 327 326 326 326 326 326
329 330 330 328 329 333 344 342 335 338 332 326 329 333 334 337 338 335 333 333 334 334 334 337 339 333 342 351 343 346 345 339 338 338 338 338 341 341 341 341 339 338 336 336 335 333 332 332 330 328 330 333 336 339 340 340 341 340 340 339 337 337 334 333 333 331 328 329 330 330 331 331 332 332 332 331 331 332 331 332 332 332 332 331 330 330 330 329 327 326 327 326 326 325 325 325 326
329 331 328 325 329 334 338 334 341 339 325 331 334 332 335 334 336 334 331 333 335 334 334 338 339 333 341 344 340 348 344 340 339 336 338 338 340 341 341 341 340 338 337 337 335 334 333 332 329 329 329 329 331 335 338 340 340 340 340 339 338 337 335 334 332 330 328 330 331 331 331 331 332 332 331 330 332 332 331 331 332 332 331 331 330 330 329 328 327 326 327 326 325 325 323 323 325
329 330 327 326 326 329 337 333 338 338 329 338 334 332 336 332 335 335 332 333 334 335 333 335 336 339 342 338 338 343 340 341 339 336 338 338 341 341 341 341 339 339 338 337 336 334 333 332 330 330 330 330 331 333 336 338 339 340 340 339 338 337 335 333 331 329 330 330 331 332 332 331 331 331 330 331 332 331 330 331 331 331 331 330 329 330 329 328 328 327 327 326 325 324 321 319 322
328 333 334 334 333 333 338 329 333 338 328 332 333 334 335 331 334 335 335 331 330 330 330 331 334 342 340 336 339 338 336 339 337 337 339 339 342 341 341 341 340 340 338 338 338 336 335 332 331 330 329 330 333 334 336 337 338 338 338 338 337 337 335 334 331 329 331 330 330 331 331 329 329 330 330 330 331 331 330 330 330 330 330 329 329 330 329 329 328 327 326 326 325 324 321 318 317
328 331 336 339 342 341 339 332 339 339 322 326 332 331 332 333 333 335 338 332 329 329 329 329 335 345 339 339 345 339 336 337 336 338 339 340 342 341 341 341 340 339 339 340 339 339 337 334 333 331 329 329 330 333 335 336 337 337 336 337 337 337 335 334 332 330 331 331 332 331 330 329 328 330 330 329 329 330 329 329 329 330 329 329 329 329 329 328 328 327 326 326 325 323 321 318 316
328 328 336 341 338 342 345 339 340 334 323 329 328 329 332 331 333 333 334 332 330 330 328 328 336 342 339 344 345 338 337 337 336 338 339 340 341 341 341 340 339 340 340 340 340 340 338 336 334 332 330 329 328 330 333 335 335 335 335 335 335 336 335 334 332 331 332 332 333 332 331 329 328 329 330 329 330 329 328 329 329 329 329 329 329 329 328 328 328 327 326 326 324 322 320 318 316
334 330 334 342 338 340 344 339 339 333 324 328 326 330 331 328 330 328 328 329 329 331 327 326 335 340 341 346 341 337 338 337 337 338 339 339 340 340 340 340 339 340 341 340 340 339 338 337 335 333 331 330 329 327 330 333 335 334 333 333 332 333 332 332 332 330 331 333 333 333 331 330 329 328 329 329 329 329 329 329 329 329 329 329 328 328 328 328 328 327 327 326 322 321 320 318 316
342 341 337 344 342 337 337 338 344 338 324 325 326 327 328 328 326 323 326 327 328 331 325 324 335 342 343 345 342 337 337 337 338 338 339 339 339 339 339 340 339 340 341 340 340 338 338 336 335 334 332 332 329 327 326 329 333 333 333 332 331 330 328 329 330 327 329 333 334 333 332 330 329 328 328 329 329 328 329 328 329 329 328 328 328 328 328 328 327 326 326 325 321 320 319 317 317
340 346 346 343 339 335 336 338 343 341 329 326 326 325 326 326 324 323 328 329 332 330 326 326 331 342 346 344 342 336 336 338 337 338 339 339 339 339 339 339 339 340 340 340 340 339 338 336 335 334 333 332 330 328 325 324 331 332 332 332 330 329 327 330 329 326 330 333 334 334 332 331 329 327 325 326 327 328 328 328 328 328 328 328 328 327 327 327 326 326 326 322 319 319 318 317 317
338 341 343 339 337 337 336 338 343 340 334 330 328 327 326 326 326 324 327 330 333 328 324 325 330 344 347 342 341 335 336 338 337 338 338 339 338 338 339 339 339 339 340 339 339 338 337 336 335 334 333 333 331 328 325 323 330 332 331 331 331 329 329 331 328 327 331 332 333 334 333 332 330 326 324 325 326 325 326 327 327 327 327 326 327 327 327 327 326 326 324 320 319 319 318 318 316
333 338 340 336 338 341 336 337 343 337 333 336 331 329 328 327 327 321 325 329 328 328 323 324 334 348 346 340 343 338 337 337 337 338 338 339 338 338 339 339 339 338 339 338 338 337 336 336 335 335 333 333 332 329 326 324 328 331 330 330 330 329 329 331 329 329 331 331 333 334 334 333 331 327 327 327 326 325 325 325 325 325 324 325 326 326 326 327 326 325 321 319 319 319 318 318 316
332 343 344 337 340 342 338 337 340 334 332 336 329 330 330 327 326 323 327 331 329 328 321 322 331 337 340 345 351 340 336 337 337 337 337 338 337 338 339 339 339 338 339 338 338 336 335 336 335 335 334 333 332 330 328 326 327 328 329 329 330 329 328 330 329 329 329 330 331 333 333 333 332 330 329 329 328 327 326 325 325 324 324 324 325 324 326 326 325 324 320 318 319 319 319 318 316
338 350 345 338 339 338 338 339 336 334 334 334 329 330 332 327 328 326 327 331 328 325 322 321 322 326 336 347 351 338 334 338 337 337 337 337 337 338 339 339 339 338 338 338 338 336 336 336 335 335 334 333 332 331 329 327 327 326 327 328 329 329 328 329 330 329 328 328 328 329 330 331 331 332 331 330 329 329 327 326 326 325 324 323 323 323 325 325 324 322 319 319 319 319 319 318 317
344 350 344 340 340 336 340 339 330 332 336 334 331 331 332 328 327 325 323 327 326 326 328 325 323 331 339 341 340 335 336 338 336 337 337 337 338 338 339 339 339 339 338 338 337 337 337 336 336 336 334 334 333 331 330 328 328 327 327 327 328 328 328 330 330 329 328 327 327 326 327 328 328 330 331 330 330 329 328 328 326 326 325 323 322 322 323 323 323 322 318 319 320 319 319 319 318
345 345 341 341 342 339 340 335 324 328 331 330 329 329 333 329 327 326 324 327 326 326 329 332 337 338 336 336 335 336 337 337 337 337 337 337 338 338 339 339 339 339 338 338 338 337 338 337 337 336 335 335 333 332 331 330 329 328 327 327 328 328 328 330 330 329 328 327 327 326 326 326 325 326 329 330 330 330 329 328 327 326 326 325 323 322 322 321 322 321 319 319 320 319 319 320 319
343 344 340 346 349 341 336 331 325 325 325 328 326 326 331 328 326 325 324 326 325 326 326 334 347 342 336 336 336 338 337 337 338 337 337 337 337 337 337 338 339 338 339 338 338 338 338 338 338 337 336 336 334 332 332 332 330 329 328 328 328 328 328 329 330 330 329 328 327 327 327 326 325 324 325 328 329 330 329 328 327 327 326 325 324 323 322 321 320 320 319 319 320 320 320 320 320
341 342 340 350 351 339 331 326 324 323 323 325 323 324 328 326 325 324 324 326 325 329 329 333 345 343 339 337 334 337 337 337 337 336 336 336 336 337 336 337 338 338 338 338 338 338 338 338 338 338 337 337 335 333 333 333 331 330 330 328 328 328 328 328 329 329 329 328 327 327 328 327 326 324 323 325 327 328 328 328 327 327 326 325 324 324 323 321 320 320 319 319 320 320 320 321 321
336 337 342 351 344 335 332 325 323 324 324 325 324 325 326 323 324 326 325 325 326 330 331 331 340 343 341 338 335 335 336 336 336 336 335 335 336 336 337 337 337 337 337 338 337 338 338 338 338 338 338 338 337 335 334 334 333 332 331 330 329 328 328 328 328 328 328 328 328 327 327 328 327 324 323 324 326 327 328 327 326 326 326 325 324 323 323 322 321 319 318 319 320 320 321 321 321
335 336 342 348 338 334 338 331 324 326 327 327 326 324 324 323 323 328 327 325 330 330 330 330 334 340 340 338 335 334 334 335 334 335 334 335 335 335 336 337 337 337 337 337 337 336 337 337 338 338 338 338 337 336 335 335 335 334 333 332 331 330 329 329 328 328 328 328 328 328 327 327 327 324 323 324 326 327 327 327 325 325 325 325 323 323 323 322 321 319 318 319 319 320 321 322 322
335 337 338 341 336 333 335 329 323 326 327 327 325 322 322 323 324 326 326 328 332 331 333 333 329 334 337 336 335 335 335 334 333 335 334 335 335 335 335 335 336 336 336 336 335 335 335 336 337 338 338 338 337 337 336 335 335 335 334 334 333 332 330 330 329 328 328 328 328 328 327 326 326 325 324 324 325 326 327 327 326 325 325 324 323 323 322 320 320 319 318 318 319 319 320 322 322
334 338 338 337 334 333 333 328 325 328 328 326 324 320 321 324 324 323 325 329 332 328 325 324 322 328 335 336 335 336 335 334 334 335 335 335 335 335 334 334 334 334 335 334 334 334 334 335 335 337 337 337 337 337 337 336 335 335 335 334 334 333 332 330 329 327 327 327 327 327 327 326 326 326 325 325 325 326 327 327 327 326 325 324 323 323 323 321 321 320 318 318 318 319 320 321 322
336 337 339 335 333 334 334 329 326 327 326 325 322 322 325 326 323 321 324 329 332 326 319 321 324 330 335 338 337 336 334 333 334 334 335 335 335 334 334 334 334 334 334 333 333 333 333 334 334 335 336 336 337 337 337 336 336 336 335 335 334 333 333 332 330 328 327 327 327 327 327 327 327 326 326 325 325 326 327 327 326 325 324 324 323 323 323 323 323 321 319 318 318 318 320 321 321
340 337 337 334 334 334 331 325 325 329 327 325 324 326 330 327 323 324 326 326 327 326 322 326 331 334 335 338 338 335 335 333 333 334 334 334 334 334 334 334 334 334 334 333 334 333 333 333 334 334 334 335 336 336 336 336 336 335 335 334 334 334 333 332 331 329 328 328 328 328 328 328 327 327 326 325 326 326 326 326 325 324 323 322 322 321 322 323 322 321 321 319 318 317 319 320 321
339 335 335 334 334 334 331 326 326 328 326 326 326 328 331 327 323 329 333 328 324 323 322 326 334 339 333 334 336 333 333 333 333 333 333 334 334 334 334 334 334 334 334 335 335 334 334 334 334 333 333 334 335 336 336 336 336 335 335 334 334 334 333 332 331 331 330 329 329 329 328 328 328 328 326 326 326 326 326 325 324 324 323 323 322 320 321 323 321 321 322 321 318 317 318 319 322
333 333 335 335 335 334 333 332 329 326 325 329 328 328 330 325 324 329 332 330 325 322 321 322 329 336 331 331 333 330 330 332 333 333 332 333 333 334 334 334 334 334 334 335 334 335 335 335 334 334 333 333 334 335 336 336 335 335 334 334 334 334 333 333 332 332 331 330 330 330 329 328 328 328 327 326 327 326 326 325 325 325 324 323 322 320 321 322 321 322 322 321 318 317 317 318 321
331 333 335 337 334 333 333 333 332 327 327 330 327 327 330 326 327 330 329 328 326 323 322 321 323 327 327 329 330 329 328 328 329 331 332 333 332 333 333 331 331 333 333 333 334 335 335 335 335 334 334 334 333 333 335 335 335 334 334 334 334 334 333 333 333 332 332 331 330 330 330 329 328 328 328 327 327 326 326 326 325 325 324 323 322 320 321 321 321 322 322 321 319 318 318 318 320
332 331 333 336 335 336 336 331 331 328 328 330 327 331 335 331 328 328 327 327 325 324 325 325 323 321 322 323 326 329 327 324 325 328 330 332 331 331 331 329 329 331 331 332 334 334 335 335 335 335 334 334 334 333 334 334 334 334 334 333 333 334 333 333 333 333 332 332 332 331 330 330 329 329 329 328 328 327 327 326 326 325 324 322 322 321 321 322 322 322 322 321 321 320 320 319 320
333 333 334 336 338 342 338 330 331 329 327 329 329 331 333 333 331 329 328 325 323 324 325 325 324 321 320 320 321 324 323 321 323 326 329 329 328 329 329 328 329 329 330 331 333 333 334 335 335 335 334 334 333 333 333 333 333 333 333 333 333 333 333 333 333 333 333 332 332 332 331 331 330 330 329 329 329 328 328 327 326 326 324 323 322 322 321 322 322 322 321 321 322 321 321 320 320
335 336 337 336 338 341 338 331 330 329 328 326 328 334 334 331 331 329 326 324 323 324 325 324 324 322 320 319 318 320 319 317 319 323 326 327 327 328 328 328 329 329 329 330 330 332 334 334 334 335 334 334 333 333 333 332 333 332 332 332 332 333 333 333 333 333 333 333 332 332 332 331 331 330 330 329 328 328 328 327 326 325 324 323 323 322 321 321 321 321 321 320 321 322 322 321 320
335 336 339 338 337 337 337 336 331 329 330 326 326 334 336 335 337 335 328 325 326 326 325 325 324 322 320 319 318 318 318 317 316 317 320 324 325 326 327 326 327 328 328 328 329 331 332 333 334 334 334 334 333 333 333 333 333 332 332 333 333 332 332 332 333 333 333 332 332 332 332 331 331 331 330 329 329 328 328 327 326 325 323 323 323 322 322 321 320 320 320 319 321 322 322 321 321
336 335 336 337 337 337 337 338 334 331 331 329 328 329 330 333 340 340 330 327 330 330 329 327 324 322 321 321 321 320 320 321 319 316 317 321 322 323 325 325 326 326 327 328 329 330 330 331 332 333 333 333 333 333 332 333 332 332 333 333 333 332 332 332 332 333 333 332 332 332 332 332 331 331 330 329 329 328 327 327 326 325 323 323 323 322 322 322 321 319 318 318 319 321 322 322 321
336 335 336 336 335 337 338 337 334 331 330 329 329 328 327 328 330 332 329 327 330 332 331 329 325 323 322 321 323 324 323 324 320 316 318 319 320 321 322 324 325 325 326 327 328 329 329 330 331 332 333 333 333 333 333 332 332 332 332 332 332 332 332 332 332 332 332 332 332 332 332 332 331 331 331 330 329 328 328 327 326 326 324 323 323 323 323 322 322 320 319 318 318 319 321 321 321
335 335 337 337 335 335 335 334 334 331 330 330 329 328 327 327 326 326 327 326 328 330 331 332 330 327 325 324 325 326 328 328 322 319 321 321 321 321 321 322 323 324 325 326 327 328 329 330 331 332 332 332 333 333 333 332 332 332 332 332 332 332 332 332 332 331 332 332 332 332 332 332 332 331 331 330 329 328 328 327 326 325 325 324 323 323 323 323 322 321 321 320 319 318 320 321 320
335 335 336 336 335 335 332 331 335 331 330 332 330 328 328 327 326 325 325 327 327 329 330 331 332 331 328 328 329 329 330 328 322 321 323 324 324 322 321 321 322 323 324 325 327 328 329 330 331 331 331 332 333 333 332 332 332 331 331 331 331 332 332 332 332 332 331 331 331 332 332 331 332 331 331 331 330 329 328 327 326 325 325 324 324 323 323 323 322 322 321 320 320 319 319 320 320
335 335 335 335 334 335 334 334 338 332 329 335 333 330 330 327 326 325 324 327 327 328 331 330 330 331 329 329 331 331 330 328 325 324 323 323 325 324 323 321 321 323 323 324 326 327 328 330 331 331 330 332 332 332 333 332 332 331 331 331 331 331 331 331 332 332 331 331 330 331 331 331 331 331 331 331 330 329 328 327 326 325 325 324 324 323 322 323 322 322 322 321 320 319 319 319 319
334 335 335 336 334 335 335 336 340 334 330 336 336 333 332 330 328 327 326 328 329 329 329 330 330 330 329 330 330 330 330 331 330 327 324 322 324 325 324 323 322 322 323 324 325 325 327 329 330 330 330 331 331 332 332 332 332 331 331 331 330 331 331 331 331 331 331 331 330 330 330 330 331 331 331 331 330 329 328 327 326 326 325 324 324 323 323 322 322 322 322 321 320 319 319 318 319
333 334 334 335 334 335 337 338 341 339 333 333 333 333 332 331 330 330 328 328 328 330 330 330 330 331 331 330 329 329 329 329 330 329 326 322 323 324 324 323 323 323 322 323 324 324 326 327 328 329 330 331 330 331 331 331 331 331 331 331 330 330 330 330 331 331 331 330 330 330 330 330 330 330 330 330 330 329 328 327 327 326 326 325 324 324 323 322 322 322 321 321 320 319 318 318 318
331 332 333 334 333 333 336 338 338 339 337 331 330 334 334 332 333 331 328 327 327 327 329 329 329 330 330 330 329 329 328 328 328 329 328 323 321 322 323 324 324 323 323 323 323 323 324 325 326 327 328 329 330 331 331 331 331 331 331 331 331 330 330 330 330 330 330 330 330 330 330 330 330 330 330 330 330 329 328 327 326 326 326 326 325 324 324 323 323 322 322 321 320 319 319 318 318
330 330 330 331 333 333 334 334 334 336 339 334 331 337 337 333 333 331 328 329 328 326 327 328 329 328 327 327 328 328 328 328 327 327 327 322 320 321 322 323 323 323 324 324 325 325 324 324 325 326 327 328 330 330 331 331 331 331 331 330 330 330 330 329 329 329 330 330 330 330 330 329 329 329 329 329 329 329 328 327 326 326 326 326 325 324 324 323 323 322 322 322 321 320 319 318 318
330 331 329 329 331 333 333 333 333 335 337 333 331 336 338 333 332 332 330 330 328 326 327 327 327 325 325 325 325 325 325 325 326 326 326 323 320 319 320 322 324 324 324 324 324 324 324 324 324 325 326 327 328 329 330 331 331 331 330 330 330 330 330 330 330 329 329 329 329 329 329 329 329 329 329 329 329 329 328 327 327 326 326 325 325 325 324 323 323 323 322 322 321 321 320 319 318
330 330 330 329 330 331 332 333 335 335 333 332 330 332 335 334 332 331 329 329 328 326 326 326 325 325 325 324 323 323 323 323 324 326 327 324 320 318 320 323 323 323 323 323 324 324 325 325 324 324 325 326 327 328 329 330 331 331 331 330 330 330 330 330 330 329 329 329 329 329 329 329 329 329 329 329 329 329 328 328 327 326 326 325 325 325 325 324 323 323 322 322 322 321 321 320 319
328 327 329 330 331 331 331 332 334 332 332 334 332 329 332 335 334 329 326 328 328 327 326 326 325 324 323 322 321 322 321 321 322 324 325 322 318 318 320 322 322 322 323 323 324 324 324 324 324 324 324 325 325 326 327 328 329 330 330 330 330 330 330 330 330 330 329 329 329 329 328 328 328 328 328 329 328 328 328 328 327 326 326 325 325 325 325 324 324 323 323 322 322 321 321 321 320
325 324 327 329 330 331 331 332 331 330 332 335 332 329 332 336 333 328 326 327 328 327 326 324 324 324 322 321 321 320 319 322 324 326 324 318 317 320 320 321 322 322 323 322 322 322 322 322 322 322 322 323 323 324 325 326 327 329 329 330 330 330 330 330 330 329 329 329 329 329 329 328 328 328 328 328 328 328 328 328 327 326 326 325 325 324 324 324 324 324 323 322 322 322 321 321 321
324 325 328 328 329 330 330 329 328 330 334 334 331 328 331 335 333 327 326 330 330 326 326 325 323 324 324 323 321 319 322 327 328 331 327 317 316 320 320 322 322 321 321 320 320 320 320 321 321 321 321 321 322 323 323 324 326 328 328 329 330 329 330 329 329 329 329 329 328 328 328 328 328 328 328 328 328 328 328 327 327 326 326 325 325 324 324 324 324 324 324 323 322 322 321 321 321
325 328 330 330 328 328 329 327 327 332 335 333 332 328 329 333 332 327 326 329 328 326 326 326 326 327 327 326 322 322 327 331 334 338 334 323 322 321 320 322 321 319 318 317 317 318 318 318 318 318 319 319 320 321 322 323 324 325 327 328 329 329 329 329 329 329 329 328 328 328 328 328 327 328 328 328 327 327 327 327 327 326 326 325 325 324 324 324 324 324 324 323 323 322 322 321 321
326 329 330 332 331 330 331 329 328 333 333 331 330 328 329 331 329 328 327 326 326 326 325 326 328 327 326 325 324 326 330 335 341 343 336 333 332 323 319 321 318 315 315 315 315 315 315 315 315 315 316 316 317 318 319 320 320 321 323 324 326 327 328 329 329 328 328 328 328 328 328 327 327 327 327 327 327 327 327 327 327 326 326 326 325 324 324 324 324 324 324 324 323 323 322 321 321
325 328 329 331 332 332 333 331 331 332 332 330 327 328 331 331 330 329 326 325 325 324 324 326 326 325 325 324 324 331 334 335 342 344 339 340 333 321 319 319 316 314 314 314 315 315 315 314 314 314 314 314 314 315 315 316 316 317 318 319 321 323 325 327 328 328 328 328 328 328 328 327 327 327 327 327 327 327 327 327 326 326 326 326 325 325 324 324 324 324 324 324 324 323 323 322 321
323 325 328 329 330 331 332 331 332 332 331 328 325 328 332 334 334 329 325 324 324 322 324 325 325 324 324 322 324 332 336 332 334 340 341 337 325 318 320 317 315 315 314 314 314 315 315 315 314 314 314 314 314 314 314 314 314 314 315 316 317 318 321 323 325 326 327 328 328 328 328 328 328 327 327 327 327 327 326 326 326 326 326 326 326 325 325 325 324 324 324 324 324 324 323 322 322
323 324 327 327 327 330 330 328 329 331 331 328 327 331 335 333 330 327 326 325 323 324 325 325 325 324 322 322 323 329 334 333 334 337 338 331 321 318 319 315 315 315 314 314 314 315 316 315 315 314 314 314 314 314 314 313 314 314 313 314 314 315 316 318 320 322 325 327 327 327 327 328 328 327 328 327 327 327 327 326 326 326 326 326 326 326 325 325 325 325 325 325 324 324 324 323 322
323 323 325 324 325 328 328 326 326 328 331 331 330 333 334 330 327 328 330 328 325 324 323 321 322 321 321 323 323 326 333 335 334 334 336 332 322 318 317 315 315 315 315 315 315 315 316 315 316 315 314 314 314 314 314 313 313 313 313 313 313 313 313 314 315 317 319 323 325 327 327 327 327 327 327 327 327 328 327 327 327 326 326 326 326 326 326 325 325 325 325 325 325 325 324 324 323
323 324 323 323 325 327 326 327 327 327 328 329 330 330 329 328 329 328 328 329 326 323 321 319 320 324 327 327 325 327 330 331 332 332 333 330 321 317 317 315 314 314 314 315 315 315 315 315 316 316 315 315 314 314 314 314 313 313 313 313 313 313 313 313 313 313 314 317 320 323 325 326 327 327 327 327 327 327 327 327 327 326 327 326 326 326 326 326 325 325 325 325 325 325 324 324 324
324 323 321 323 327 326 325 326 327 327 327 327 330 329 326 327 327 323 324 325 324 323 322 319 320 327 332 330 330 332 330 327 328 328 329 330 322 317 317 315 314 314 313 313 314 314 315 316 315 315 315 315 315 314 314 314 314 313 313 313 313 313 313 313 313 312 312 313 314 317 320 323 325 326 326 326 326 327 327 327 327 327 327 326 326 326 326 326 325 325 325 325 325 325 325 324 324
323 322 320 323 325 325 325 324 323 326 326 325 328 329 327 326 321 319 321 320 321 324 324 323 324 328 330 328 330 335 332 327 326 324 326 329 322 315 315 314 313 313 313 313 313 313 314 316 316 315 315 315 315 314 314 314 314 313 313 313 313 313 313 313 313 313 312 312 313 314 315 318 321 323 325 325 326 326 326 326 326 326 326 326 326 326 326 326 326 325 325 325 325 325 324 324 324
323 323 323 323 323 324 325 323 325 327 324 324 326 326 329 327 319 317 319 316 319 321 321 325 328 328 328 327 327 332 332 328 325 320 321 324 317 312 314 313 312 313 312 313 313 312 313 314 315 315 314 315 315 314 314 314 313 313 313 313 313 313 313 313 313 313 312 311 312 312 313 315 317 320 322 324 325 326 326 326 326 326 326 326 326 326 326 326 326 326 325 325 325 325 324 324 324
322 322 323 322 322 324 325 324 327 328 324 326 326 322 326 328 320 317 318 316 317 318 318 322 327 328 329 327 324 327 329 328 325 322 325 324 315 311 313 313 312 313 312 312 312 312 312 312 314 314 313 314 315 314 314 314 313 313 313 313 313 313 313 313 313 312 312 311 311 310 311 313 315 316 319 322 324 324 325 325 325 325 325 325 326 326 326 326 326 325 326 325 325 325 324 324 324
Wind_Speed
22 24 25 26 23 12 3 4 2 2 4 2 1 1 1 2 1 2 1 0 1 1 1 1 2 3 5 5 8 6 3 2 3 3 2 2 13 23 19 14 18 21 20 18 17 17 15 14 13 12 12 11 11 12 12 11 12 12 11 12 12 12 12 10 9 9 10 11 10 10 11 11 10 10 10 10 11 12 12 12 12 12 12 12 12 12 11 11 11 10 10 10 10 10 10 10 9
22 23 25 25 16 5 1 3 3 3 5 3 2 2 2 3 3 2 3 2 2 3 3 4 7 8 8 8 7 5 3 3 2 3 1 11 18 19 18 16 18 20 20 19 17 17 16 14 13 12 12 12 11 11 12 11 12 12 11 12 12 12 11 9 9 9 10 11 10 11 11 11 11 11 10 11 12 12 12 12 11 11 11 10 10 11 11 10 10 10 10 10 10 10 9 8 9
22 22 26 22 9 3 2 3 3 2 4 2 2 2 0 2 3 4 4 3 4 3 2 5 7 6 6 5 3 3 1 4 1 2 3 14 15 15 19 17 17 19 20 18 16 16 16 14 12 12 12 12 12 11 12 11 12 12 12 13 13 12 11 10 11 10 9 10 11 11 11 11 11 11 11 11 12 11 11 11 11 11 11 10 10 10 10 10 10 10 9 9 9 8 8 8 12
20 21 23 13 4 4 3 3 2 4 3 3 2 4 1 4 6 5 4 3 3 1 2 3 4 1 5 6 2 3 1 2 1 3 4 11 13 19 22 17 18 18 18 18 15 15 15 14 12 12 11 11 12 11 12 12 12 11 12 13 13 13 11 11 11 9 8 11 11 11 11 11 12 12 12 11 11 11 11 11 10 10 10 10 9 9 10 10 9 9 8 8 7 7 7 11 14
20 20 15 4 2 2 3 2 2 4 3 4 2 4 4 5 7 5 3 3 3 3 3 3 3 2 4 4 2 2 3 1 1 4 7 10 17 23 22 19 19 18 18 16 14 14 14 13 12 12 11 11 12 12 11 11 12 11 12 13 14 13 12 11 10 7 8 12 11 12 12 11 12 11 12 11 10 10 11 11 10 10 10 10 9 9 9 8 8 8 8 7 7 6 7 11 13
21 17 7 3 2 1 3 2 2 2 4 5 3 4 6 6 6 6 2 2 4 3 3 3 3 3 3 2 1 3 3 3 4 7 11 17 21 23 21 20 19 18 17 16 14 13 13 12 12 11 11 10 11 13 12 11 11 11 12 14 15 12 11 10 7 7 10 13 12 12 12 11 11 11 12 11 11 10 10 10 10 10 9 10 10 9 8 7 7 8 7 6 6 5 5 8 11
18 11 3 3 2 1 3 1 2 3 2 4 5 5 7 6 6 7 4 3 4 4 4 3 4 6 2 1 1 2 3 5 8 11 17 23 24 22 21 20 19 17 16 15 14 13 13 12 11 11 10 10 11 12 12 10 10 11 12 14 15 12 11 8 7 9 12 13 13 13 12 12 11 11 12 12 11 11 10 10 10 10 9 9 9 9 8 7 7 7 6 5 5 4 4 5 7
11 4 1 4 2 2 3 1 3 3 0 2 5 7 9 8 7 6 5 3 1 1 3 1 3 6 1 1 1 4 0 7 10 16 22 25 26 23 22 20 18 17 16 15 14 13 13 13 12 11 11 11 11 12 12 11 11 10 10 12 13 12 10 9 8 9 11 13 13 13 13 12 12 12 12 12 12 11 11 10 10 10 9 9 9 9 8 7 6 6 5 5 4 3 3 4 5
7 2 2 3 2 3 2 3 3 3 1 3 5 5 8 8 7 6 5 3 3 2 2 1 3 5 0 4 1 4 2 7 13 22 25 26 25 23 22 19 16 17 18 16 15 14 13 13 13 12 11 10 11 13 13 12 12 11 10 10 11 11 10 9 10 10 11 13 14 13 13 11 12 12 12 12 12 11 11 10 10 10 9 9 9 8 7 7 6 5 5 4 3 2 3 3 4
5 3 2 2 2 3 3 3 3 2 2 2 4 6 7 6 6 6 7 5 4 4 0 1 5 5 3 3 0 3 3 12 19 23 25 26 24 22 21 18 15 18 20 18 16 14 13 14 14 13 12 11 11 14 14 14 14 12 10 10 11 11 10 10 11 11 12 13 14 14 12 11 11 13 12 12 12 11 11 11 11 10 9 9 9 8 7 7 6 5 5 4 3 3 3 3 3
3 4 2 3 4 3 2 3 5 3 3 3 1 5 6 6 5 4 7 5 2 4 2 1 5 4 3 1 2 1 9 16 21 24 25 25 22 21 20 18 17 18 20 19 16 14 12 13 14 14 12 11 11 13 15 15 17 15 12 12 11 11 10 11 12 12 13 13 14 14 12 11 12 13 13 13 12 11 11 11 10 9 9 9 8 8 7 7 6 5 5 5 4 4 4 3 4
2 4 3 4 2 1 2 2 5 4 5 4 1 4 4 6 6 5 7 6 2 3 2 2 5 5 4 1 2 4 12 16 21 24 24 23 22 20 19 19 18 19 19 18 16 14 12 13 14 14 12 11 10 12 14 16 19 17 15 14 12 11 11 11 12 12 13 13 13 15 13 12 12 13 13 12 13 12 12 11 11 10 9 9 8 7 7 7 6 6 6 6 5 5 4 4 5
3 0 4 2 2 1 1 2 4 3 4 2 4 3 3 5 5 8 8 6 5 5 2 4 6 5 3 1 1 3 10 15 19 22 23 22 20 18 19 21 20 20 19 17 16 14 13 13 14 14 13 11 10 11 12 16 20 20 18 16 14 13 13 13 12 12 14 14 14 15 15 13 13 13 12 12 13 13 12 12 12 11 9 9 8 8 7 6 6 7 6 6 6 5 4 4 6
1 1 4 1 0 1 1 2 3 0 3 5 3 2 2 2 3 6 7 7 4 4 3 4 7 6 2 1 1 2 9 17 19 20 22 22 19 14 17 22 21 21 19 17 16 14 14 14 15 15 14 13 12 12 12 15 20 21 19 18 16 15 15 16 14 13 14 14 14 15 15 15 14 14 13 13 13 13 12 13 13 11 9 10 9 9 8 7 8 7 6 7 6 5 4 3 6
0 1 4 2 2 3 1 2 2 2 4 3 1 1 3 2 2 3 6 8 3 4 2 3 5 2 3 5 4 7 13 21 20 20 22 20 16 13 18 22 20 20 19 17 16 15 15 14 16 16 16 16 15 14 14 15 18 20 20 19 19 17 17 17 16 14 14 14 12 13 13 13 14 15 15 14 13 13 12 13 13 11 9 10 11 11 9 9 10 9 8 8 7 6 4 3 6
2 3 4 2 1 2 1 2 1 2 3 3 3 2 5 4 1 3 2 5 3 1 2 2 1 1 6 7 7 13 20 24 22 20 21 17 14 15 20 21 19 19 17 17 17 16 15 15 16 17 17 17 16 16 15 16 17 19 19 20 20 19 19 18 18 16 16 15 14 13 13 13 13 15 15 14 13 13 12 13 12 10 9 10 12 12 11 11 12 10 9 9 8 6 4 3 5
3 3 3 2 0 0 2 1 1 1 4 3 4 4 5 3 3 1 3 4 5 1 4 1 2 2 6 5 8 20 24 26 25 21 19 15 15 18 20 20 19 19 18 18 17 17 17 17 17 17 18 17 17 17 17 18 18 19 20 21 21 20 19 20 19 18 18 17 16 15 15 15 14 15 16 15 15 14 13 13 11 10 10 10 11 13 13 13 12 12 11 10 9 7 6 5 5
3 3 2 1 2 2 3 3 3 1 1 2 3 2 6 1 2 2 3 6 4 4 5 3 5 6 2 5 15 25 26 28 27 23 19 17 17 18 18 20 21 20 20 19 18 18 19 19 18 18 19 18 18 18 19 19 19 20 20 21 22 21 20 20 20 19 19 18 18 17 17 17 16 16 17 17 16 15 15 14 12 12 11 11 11 12 14 15 14 13 12 11 10 8 7 7 7
2 3 2 3 4 4 4 3 4 1 2 1 2 1 5 3 2 1 1 2 3 5 4 5 5 6 5 11 20 25 27 28 26 25 21 19 19 19 19 20 21 21 21 21 20 19 19 19 19 20 19 18 19 20 20 19 20 20 21 22 22 22 21 21 21 21 20 19 19 19 18 18 17 17 18 18 17 17 16 15 14 13 13 13 12 12 14 15 14 14 13 13 11 9 9 9 9
1 3 2 5 5 3 4 2 3 2 2 3 2 2 3 1 2 1 2 2 1 3 2 1 1 2 4 8 16 22 24 24 25 25 23 22 22 22 21 21 22 24 24 23 22 21 21 21 20 20 19 18 19 20 20 20 20 21 21 22 22 22 22 22 22 22 21 21 20 20 19 19 18 18 18 19 18 18 18 17 16 15 15 15 14 14 13 14 14 15 15 14 13 12 12 12 11
1 3 4 6 3 2 5 3 3 3 3 5 0 2 2 2 0 2 4 3 2 4 6 6 6 8 9 7 12 19 20 20 21 22 23 23 23 23 24 25 26 26 25 24 24 24 23 23 22 21 21 20 19 20 21 20 20 21 21 22 22 22 22 23 23 23 23 22 21 21 20 20 19 19 19 20 20 19 19 19 18 17 17 17 16 16 14 14 15 16 16 15 15 14 14 13 13
1 3 5 6 3 2 6 4 4 3 3 4 3 3 1 1 1 2 6 4 4 5 6 8 9 11 13 12 13 15 16 17 19 20 22 23 24 24 26 27 27 26 25 26 27 27 26 25 25 23 23 22 22 21 21 21 21 21 22 22 22 22 23 23 23 24 24 24 23 22 21 21 21 21 21 22 21 20 20 21 20 19 20 19 17 17 17 16 16 16 16 16 16 15 15 15 14
2 3 3 5 4 3 4 2 4 2 4 3 2 2 1 2 2 3 5 5 7 6 7 7 8 14 17 15 14 12 13 14 18 22 24 25 25 26 27 28 28 28 28 28 29 28 28 28 27 26 25 25 25 23 22 22 22 23 22 22 23 23 23 24 25 26 26 25 24 23 23 23 23 23 23 23 22 22 22 22 22 21 21 20 19 19 19 18 17 17 17 17 17 17 17 16 16
2 4 3 5 5 5 5 4 4 4 6 4 3 2 2 2 2 1 3 6 7 6 6 4 6 15 17 13 12 12 14 16 20 25 27 28 30 30 30 29 29 29 29 30 29 28 29 29 30 30 29 28 27 26 25 25 24 24 24 24 24 24 23 25 25 25 26 26 25 25 24 24 25 25 26 25 24 24 24 24 23 22 22 21 21 21 21 20 20 19 19 19 19 19 19 19 18
3 5 4 3 4 6 6 5 5 5 5 4 4 1 5 6 2 1 5 8 7 7 5 1 5 13 13 12 12 11 12 16 20 22 25 27 29 28 28 29 28 29 31 31 29 29 29 29 30 32 32 31 29 28 28 27 27 26 26 27 27 25 25 25 24 24 25 25 26 26 26 26 27 27 27 27 25 25 26 25 24 23 23 22 22 23 23 22 22 22 21 21 21 21 21 20 19
5 6 5 3 4 6 4 4 6 5 4 4 4 4 7 5 2 2 7 9 7 5 4 3 6 10 11 12 13 13 12 15 19 21 24 26 25 24 27 29 29 30 33 32 30 30 29 28 30 32 33 32 31 31 31 30 29 29 29 29 29 28 27 26 24 24 24 25 25 26 27 28 28 28 29 27 26 26 26 26 25 24 24 24 24 25 25 23 24 24 23 22 23 23 23 22 21
4 3 4 5 6 6 2 4 6 4 2 4 6 6 7 4 2 3 7 9 6 4 5 4 7 9 11 11 12 14 14 17 23 22 21 21 22 25 29 29 31 33 33 32 32 32 30 30 31 32 32 32 33 33 33 32 31 32 32 31 31 30 29 27 26 27 26 26 26 25 26 28 28 29 29 28 26 26 26 26 26 25 26 26 25 26 26 25 25 24 23 23 24 25 24 23 23
4 3 4 5 5 5 4 5 5 2 2 5 7 5 5 3 1 6 8 7 4 5 6 5 6 8 10 10 10 10 13 19 23 20 18 21 25 29 31 32 34 35 34 34 34 33 32 32 31 32 32 32 33 34 35 34 34 33 33 33 33 32 31 30 29 29 29 28 27 26 26 27 28 29 29 29 28 27 27 27 27 27 28 27 27 26 25 25 25 24 23 23 24 25 25 25 25
4 3 4 6 6 5 6 6 4 6 4 6 5 3 5 4 5 8 9 8 5 4 5 5 7 7 7 9 8 7 12 17 17 19 23 28 31 32 32 34 35 35 35 36 34 33 34 33 32 32 33 33 34 35 35 36 36 35 35 35 34 34 33 33 32 32 31 30 29 29 28 27 28 29 30 30 30 29 29 29 29 29 29 28 27 26 26 25 25 25 24 24 24 25 26 27 27
3 3 2 4 5 5 7 4 4 6 4 5 6 3 6 7 9 9 8 9 7 6 7 6 7 7 7 8 7 8 12 13 15 22 29 30 32 32 33 34 34 34 35 34 33 34 34 34 33 33 33 34 35 35 36 37 37 37 36 36 36 36 35 35 35 34 33 32 31 31 30 30 29 29 30 31 31 31 31 32 32 32 31 28 27 26 26 26 26 26 27 26 26 26 28 28 28
1 2 3 3 3 5 6 3 6 6 3 5 7 4 7 6 9 11 9 8 7 8 9 8 7 6 7 7 8 8 10 14 20 27 31 32 33 33 33 34 33 34 34 33 34 35 34 34 34 34 34 35 35 36 37 38 38 38 38 37 37 37 37 37 36 35 35 34 33 33 33 32 32 31 31 31 31 32 33 34 34 34 32 29 29 28 27 28 29 29 29 29 29 29 30 30 30
0 3 3 3 5 5 6 3 7 8 3 4 7 4 7 7 10 11 8 6 6 7 9 8 8 7 7 7 8 8 9 15 21 26 30 32 33 33 34 34 33 34 34 34 35 34 34 34 34 34 35 35 36 37 38 38 38 38 39 38 38 37 37 38 37 37 36 35 35 35 35 34 33 33 32 32 32 32 32 33 34 34 32 30 30 30 29 30 31 32 31 31 32 32 32 32 32
2 4 3 3 5 3 4 4 5 9 3 2 6 5 5 6 8 8 5 5 7 7 9 9 9 9 8 8 7 8 7 9 13 20 29 32 33 34 34 35 34 34 34 34 34 34 34 34 35 35 36 37 37 38 38 39 39 39 39 38 37 37 38 39 39 38 37 37 36 36 36 35 35 34 34 34 33 33 32 33 33 32 32 30 30 31 31 30 31 33 33 33 34 34 33 33 34
3 3 4 3 3 3 3 5 5 7 6 6 8 8 8 8 6 6 4 4 6 6 9 9 9 9 8 8 7 7 7 7 9 17 28 32 34 35 35 36 35 34 34 34 34 34 35 34 35 37 38 38 38 38 39 39 40 39 38 37 37 37 38 39 38 38 39 38 38 39 38 36 36 36 35 35 35 34 33 33 33 32 32 31 31 32 32 31 30 31 34 34 34 35 34 34 35
7 5 3 3 2 4 5 4 4 6 8 9 8 8 11 11 9 8 7 3 5 6 8 7 8 8 8 8 7 7 7 8 11 18 28 32 34 36 36 36 35 34 34 33 34 34 34 34 34 36 38 38 38 38 38 38 38 38 37 36 36 37 38 38 38 39 40 40 40 40 39 38 38 37 37 36 36 35 34 34 34 33 33 33 33 33 33 33 31 31 33 34 34 35 36 35 34
7 7 4 4 4 5 4 4 4 5 6 8 9 9 10 12 12 11 10 7 5 6 6 5 7 7 7 8 7 7 8 9 14 22 27 29 32 34 35 36 36 36 35 33 34 34 34 35 34 35 37 38 38 37 37 36 35 36 35 34 35 37 38 39 40 41 41 41 42 41 39 39 39 38 38 37 36 36 36 35 35 35 34 33 34 35 36 36 34 33 33 33 33 34 36 36 34
2 4 5 5 5 5 3 3 5 3 4 7 8 11 11 12 14 13 10 9 7 7 8 7 7 7 7 8 7 8 9 9 14 20 23 25 27 29 31 32 33 33 34 34 33 33 35 35 35 36 37 37 38 37 37 36 35 35 33 33 36 38 38 39 40 41 42 43 42 40 39 39 39 39 38 38 37 36 36 35 34 35 35 35 35 36 37 36 35 34 33 33 33 33 34 36 34
0 2 3 4 4 5 4 4 5 1 3 5 5 8 10 10 12 11 7 6 8 9 9 9 9 9 7 7 9 9 8 8 10 14 19 22 23 24 26 27 29 31 33 35 34 35 36 35 36 37 37 36 38 38 38 38 38 37 35 36 38 39 38 38 40 41 42 42 41 39 39 38 38 39 39 39 38 36 35 35 34 34 34 35 36 36 36 36 36 35 33 33 33 34 34 33 33
3 3 3 3 3 3 5 4 4 2 2 4 4 5 7 8 10 11 7 7 7 9 10 9 10 9 8 8 9 10 9 9 10 11 16 20 22 23 23 24 27 30 33 34 34 35 35 35 37 37 37 37 38 39 38 38 39 38 37 37 37 36 36 37 38 39 38 39 39 38 38 38 38 39 39 39 38 38 36 36 35 34 33 34 35 36 36 36 36 35 35 34 32 31 33 32 32
6 5 4 4 3 2 4 4 3 3 3 3 4 5 6 6 7 9 8 8 7 8 9 9 8 8 10 10 8 9 10 11 11 11 13 18 22 23 23 24 27 28 30 31 31 33 34 36 37 37 38 38 38 38 38 39 38 37 36 35 33 31 31 32 33 34 35 36 36 37 38 39 39 39 39 39 39 39 38 37 36 35 34 33 34 35 36 37 36 36 36 36 32 29 30 31 32
7 8 8 7 5 5 5 3 3 5 4 2 2 6 7 6 7 9 7 6 6 7 8 8 8 8 9 9 8 9 10 11 12 12 12 13 18 22 25 27 26 24 26 28 29 31 33 35 37 37 38 38 38 38 38 37 35 33 32 31 29 27 26 27 28 30 33 35 36 38 39 40 39 39 39 39 40 40 39 38 37 35 35 34 34 35 36 36 37 37 36 35 35 33 31 29 28
6 9 12 11 9 9 7 2 2 4 6 3 1 5 7 4 7 10 7 7 7 5 7 9 9 9 9 8 9 10 10 11 11 12 11 11 15 21 23 25 25 24 26 29 29 29 31 33 34 36 37 36 36 35 35 34 33 33 31 29 28 26 26 27 29 31 33 35 38 39 39 39 39 39 39 39 39 40 39 38 37 36 36 35 35 35 35 35 36 37 36 35 37 38 33 27 26
6 6 11 13 10 10 9 5 3 4 6 4 3 5 7 3 4 7 6 8 9 5 6 9 9 9 8 8 10 10 10 10 9 10 10 11 14 16 18 24 26 26 27 26 24 24 26 28 30 31 33 33 33 32 31 31 32 33 32 32 32 30 29 31 32 32 34 35 37 37 37 38 38 39 39 39 39 39 39 38 37 36 36 37 36 36 37 37 36 36 37 37 38 37 34 30 30
5 1 7 14 13 12 10 8 6 5 3 4 2 4 6 6 5 7 6 5 8 7 7 8 8 8 10 10 10 10 11 11 9 10 11 11 14 15 18 25 26 24 22 19 17 17 18 21 23 25 27 28 29 29 29 29 31 32 33 34 34 33 33 33 31 30 32 33 33 35 36 36 37 38 39 40 39 39 38 38 37 37 37 38 37 37 39 38 37 36 36 37 38 37 36 36 34
4 1 5 9 9 10 9 7 6 3 1 6 5 4 5 8 5 6 6 6 8 8 8 9 9 10 11 10 10 10 12 11 8 9 10 9 13 17 20 23 22 17 13 11 9 9 9 11 14 17 19 21 23 24 25 27 29 31 32 32 33 34 34 34 31 29 29 30 32 34 35 35 36 37 39 39 40 40 39 38 38 38 38 38 38 39 40 38 37 38 37 36 37 38 38 37 36
2 5 8 5 3 3 4 5 6 3 3 10 10 8 6 7 3 5 4 5 8 8 7 8 8 9 9 9 11 11 9 8 7 8 9 10 14 16 15 13 11 6 4 5 6 6 7 8 9 11 12 13 15 18 21 24 26 28 30 31 32 33 32 32 31 30 30 29 30 33 34 35 36 36 38 39 39 40 39 39 39 39 40 39 39 40 40 40 39 39 39 38 38 38 39 39 39
7 6 8 6 4 4 2 1 3 3 5 13 15 12 9 7 3 4 4 5 8 7 6 7 7 8 8 8 9 8 6 6 7 7 7 9 10 8 4 1 3 5 5 5 5 5 6 7 8 9 10 10 11 13 15 18 21 24 28 30 31 32 32 30 28 29 30 29 31 33 33 34 35 36 37 38 39 39 39 39 39 39 40 40 40 41 41 41 40 39 38 38 39 39 40 39 40
8 5 5 4 2 2 2 2 1 5 6 10 12 12 10 9 5 3 6 7 8 9 8 8 9 8 8 8 8 6 5 7 7 6 4 2 1 3 5 8 8 7 6 4 4 4 4 5 7 8 8 8 8 9 11 13 16 19 23 27 29 32 32 30 29 30 31 30 32 33 32 32 33 34 36 37 38 38 38 38 39 39 39 40 41 41 41 40 39 38 37 38 39 40 41 40 39
5 6 7 6 2 2 2 2 3 5 5 5 5 9 8 9 8 5 7 7 7 8 9 9 10 9 9 9 8 6 6 7 6 5 4 5 5 4 7 10 9 8 7 6 5 5 4 4 5 6 6 5 6 7 9 11 13 15 18 21 25 28 30 31 31 31 32 31 32 32 31 31 31 33 34 36 37 37 37 38 39 40 41 42 42 41 41 40 39 38 38 38 39 40 41 41 41
7 8 9 8 6 4 5 5 3 3 5 3 2 5 4 5 6 9 11 11 12 11 10 10 9 9 10 8 6 6 5 7 6 6 5 5 4 3 6 10 9 8 7 7 6 6 5 5 4 5 6 5 4 5 7 10 12 14 15 17 20 23 26 29 31 32 33 32 31 32 32 32 32 33 34 36 37 37 36 38 39 41 42 42 42 41 41 40 39 39 39 39 40 41 41 40 41
8 4 4 6 6 5 6 6 4 3 2 1 2 3 5 4 4 8 13 13 13 10 7 8 7 8 9 6 5 6 6 6 5 5 5 5 6 6 8 10 8 7 6 6 6 6 6 6 5 6 7 6 6 6 5 7 8 10 12 15 18 20 22 25 28 31 32 33 32 32 33 34 34 35 36 36 36 36 36 37 38 40 41 42 42 41 41 40 39 39 39 39 40 40 40 40 41
5 2 2 4 3 3 2 2 3 3 2 2 3 2 4 5 5 6 6 6 7 7 6 7 8 9 8 6 7 8 6 6 4 4 6 6 8 10 10 10 8 6 5 5 5 5 6 6 5 5 5 6 7 7 8 8 9 9 10 12 14 17 20 23 26 28 31 32 33 33 34 35 35 35 36 36 36 36 36 36 37 39 40 41 41 41 40 40 40 39 39 39 40 40 40 40 40
4 4 4 2 2 4 2 1 1 3 1 2 4 3 4 3 6 7 6 6 6 7 7 8 9 9 8 7 8 8 7 6 5 6 8 7 9 12 11 10 8 6 5 3 3 3 3 4 4 4 4 4 5 6 7 8 10 11 12 13 14 15 17 20 23 26 28 30 32 34 35 36 36 36 36 35 35 36 36 36 37 38 39 40 40 41 41 41 40 40 40 39 40 40 40 40 39
6 5 4 2 2 2 2 1 1 3 3 3 5 8 5 3 4 4 5 9 10 10 9 9 10 9 7 7 8 7 8 10 11 10 10 9 11 14 14 11 8 6 5 3 2 1 0 1 2 2 3 3 4 5 6 7 9 11 13 14 15 16 17 19 20 23 25 26 29 32 34 35 36 36 35 35 35 35 36 36 37 37 38 39 39 40 40 41 40 40 40 40 41 40 39 40 39
3 6 7 5 2 4 4 4 3 4 5 3 4 8 6 6 7 4 7 13 14 12 9 9 11 9 7 7 6 6 6 7 9 9 9 8 10 14 15 12 7 5 4 3 2 1 1 2 2 2 3 3 4 4 5 6 8 10 13 14 16 18 20 21 21 21 22 24 27 29 31 33 35 35 35 35 35 36 36 36 37 37 37 38 38 39 39 40 40 40 40 40 41 40 40 40 39
2 5 7 4 4 5 6 6 4 4 6 4 4 5 4 6 9 10 13 14 11 9 8 8 10 8 7 6 6 6 6 6 6 7 9 8 10 15 17 12 7 5 3 2 2 3 3 2 3 4 5 5 5 6 6 7 8 10 12 14 16 19 22 24 24 22 22 23 25 27 29 31 32 33 34 34 35 36 36 37 37 37 37 37 38 38 39 39 39 40 40 40 41 40 41 41 40
6 8 8 6 5 2 1 4 4 3 4 5 4 5 5 5 8 12 15 13 10 9 10 9 7 6 7 7 7 7 6 6 6 5 6 6 8 14 15 10 6 5 6 5 6 7 8 5 3 4 6 7 7 7 8 9 10 10 13 15 17 21 24 25 25 25 24 24 25 26 27 28 29 31 32 33 34 35 36 36 37 37 37 38 38 38 38 38 39 40 40 41 41 40 41 41 40
10 10 10 10 8 4 2 4 2 3 4 4 4 6 6 5 6 9 12 12 9 10 11 9 7 6 8 8 8 8 8 7 6 6 5 4 6 11 11 7 3 5 6 6 7 9 11 11 7 5 8 8 7 8 11 12 12 13 14 16 19 23 25 26 26 26 26 26 25 26 26 27 28 29 30 31 33 34 35 36 36 37 37 37 38 38 38 38 38 39 39 40 40 39 40 41 40
Wind_Direction
326 326 329 337 337 336 6 73 53 322 72 73 329 100 258 250 157 89 97 54 44 308 229 85 35 73 94 113 129 121 100 161 167 147 208 187 151 163 168 163 158 158 160 159 156 152 148 146 145 145 141 140 141 144 146 146 144 143 141 138 133 127 117 106 92 83 104 117 114 117 119 124 127 126 123 117 117 118 118 115 113 111 107 107 108 109 109 108 107 107 104 102 100 102 106 111 117
329 327 330 338 344 0 317 70 87 334 50 74 312 145 221 328 53 126 190 158 168 205 177 115 80 78 93 118 127 100 43 323 189 158 110 127 141 162 170 166 161 160 160 160 160 156 153 151 151 151 144 141 145 147 149 150 150 148 147 145 138 131 123 114 103 92 107 122 122 123 126 127 127 127 126 121 120 120 119 117 115 114 112 110 110 113 112 108 108 105 103 104 101 106 112 117 133
333 332 334 341 354 34 12 45 85 49 69 111 277 260 40 68 120 180 206 184 210 218 137 106 89 91 90 80 64 79 43 303 177 106 103 136 141 163 172 170 163 162 161 160 162 161 158 156 154 154 149 144 147 152 153 153 154 153 155 152 142 136 131 122 119 113 113 125 128 128 131 131 130 128 125 125 125 122 119 118 120 120 118 116 114 117 116 111 112 110 108 108 108 110 115 133 146
337 338 337 346 19 19 47 47 101 114 110 167 242 270 248 156 163 183 224 242 261 336 86 89 69 54 89 99 82 74 142 273 175 112 134 156 158 163 166 163 160 161 161 160 164 165 161 159 156 153 151 149 151 152 156 157 158 158 159 157 145 142 138 130 133 124 114 130 134 134 135 136 135 131 127 128 130 127 126 124 124 124 122 121 118 118 118 116 115 116 116 113 115 112 123 146 152
340 343 341 22 76 2 78 57 70 98 173 178 164 247 224 190 171 176 233 287 328 43 90 96 74 349 63 111 138 110 165 156 172 157 135 156 163 160 160 157 157 158 160 160 162 167 164 160 157 153 152 157 159 156 160 162 163 160 162 159 147 147 145 137 139 126 123 135 140 142 141 140 138 134 133 133 134 132 130 128 126 126 126 125 123 124 124 124 118 116 120 117 119 116 128 148 156
342 348 356 74 82 159 92 37 354 308 232 169 152 221 209 199 173 162 155 29 355 15 73 77 105 106 61 0 75 131 201 147 153 172 144 151 161 159 158 155 155 155 158 159 162 170 166 162 159 156 155 160 164 162 163 164 165 161 162 159 151 156 155 146 141 136 142 143 145 147 143 142 141 141 143 141 135 133 133 134 134 134 134 132 131 135 133 133 128 123 128 125 124 126 134 147 160
342 349 8 50 13 58 83 87 256 268 241 166 161 174 189 209 178 140 122 88 11 357 41 66 123 107 83 301 51 2 248 179 158 165 153 154 161 159 158 155 153 153 155 159 161 166 166 167 165 160 160 161 164 165 163 162 167 166 162 157 157 165 164 159 149 145 150 150 150 150 146 145 149 150 151 147 139 138 142 143 144 142 140 137 138 141 140 140 135 131 135 130 126 129 136 145 159
348 347 20 71 17 15 77 325 264 220 236 147 160 169 180 190 176 138 135 132 96 350 35 50 116 93 337 31 100 328 57 174 163 156 154 155 159 158 159 157 156 157 158 161 160 163 166 172 172 166 164 164 167 166 167 171 174 174 171 163 165 170 166 163 155 152 158 157 157 155 153 151 154 158 155 150 147 149 152 152 148 146 145 143 144 146 148 148 143 142 137 130 134 134 138 145 151
10 31 15 75 36 9 48 318 293 237 246 140 154 181 181 179 171 141 135 132 139 132 35 239 97 102 234 51 107 300 51 160 158 152 154 155 156 157 161 164 166 166 164 166 165 167 169 176 179 173 168 168 173 171 174 182 179 180 184 179 179 182 178 172 164 165 170 167 163 162 161 157 157 160 159 156 158 161 160 158 153 152 153 150 152 152 153 152 149 146 138 141 157 159 144 144 144
18 38 50 75 49 17 356 324 318 269 227 175 176 183 179 180 165 141 131 137 150 125 252 286 73 107 139 77 136 297 117 151 153 152 157 158 156 159 166 170 176 172 169 170 169 171 172 178 182 180 177 175 179 178 180 184 182 183 185 187 188 189 192 185 177 179 183 179 170 167 168 164 160 161 164 166 164 163 163 162 159 159 158 157 159 156 156 155 153 148 147 164 176 167 161 144 136
19 0 72 75 49 39 338 312 313 289 279 328 200 189 186 171 138 123 118 127 159 126 184 16 82 120 91 73 269 192 149 150 155 156 160 162 161 167 171 172 177 175 173 172 170 173 175 180 185 185 183 181 183 183 186 187 185 185 184 190 191 189 191 185 185 192 192 188 177 173 176 172 167 168 170 171 167 166 170 168 165 164 163 165 164 161 162 159 163 163 172 196 192 170 164 141 134
57 336 60 79 73 135 248 272 298 296 314 344 186 230 190 153 125 131 128 134 161 114 187 158 135 144 77 332 273 150 153 156 163 163 164 165 165 173 177 174 176 177 176 175 174 178 181 183 186 188 187 187 189 186 189 188 186 188 187 190 192 190 187 183 188 194 193 192 186 181 183 182 176 176 175 171 172 176 178 173 169 169 170 175 172 170 171 171 179 181 197 216 198 174 156 133 142
85 18 82 78 177 179 278 285 296 324 325 284 212 246 142 141 146 160 141 127 145 120 210 200 140 111 88 252 277 149 165 169 169 168 169 167 168 175 180 178 175 177 179 179 179 181 185 187 188 191 190 192 196 191 191 188 185 188 190 191 192 190 184 185 190 191 190 194 194 188 185 185 182 179 178 177 179 184 185 180 177 175 178 184 181 179 180 182 188 191 215 223 196 180 162 139 153
59 135 102 67 279 68 255 312 321 1 265 252 235 278 98 125 174 166 128 115 173 163 180 180 131 103 103 229 302 220 185 177 172 173 173 170 175 180 182 179 176 179 182 186 187 186 185 188 190 192 193 194 199 197 192 188 188 191 193 194 194 192 189 190 193 194 193 194 195 192 188 187 186 181 184 189 186 187 191 189 186 189 196 195 191 191 189 191 200 209 228 220 196 191 178 145 161
176 106 90 90 11 11 221 274 303 167 230 259 279 349 66 46 140 136 128 132 209 222 135 111 131 120 162 170 214 219 186 176 171 172 175 176 185 190 184 180 179 182 185 190 193 194 190 189 191 194 197 197 200 199 195 191 193 196 197 198 197 196 196 196 196 198 199 197 196 195 194 194 192 188 193 200 195 194 196 193 193 198 203 197 198 198 192 200 214 223 228 213 201 201 190 155 170
111 102 67 59 21 4 251 260 345 150 246 259 292 18 65 346 66 107 215 142 143 269 50 95 194 111 161 179 208 193 178 171 167 172 177 181 189 186 180 179 184 186 189 195 197 201 198 193 193 195 199 201 202 200 197 195 195 199 201 202 202 200 200 201 199 200 203 203 203 201 201 205 203 198 203 208 203 203 201 198 200 201 201 200 204 203 198 207 218 224 220 211 207 206 190 165 179
64 80 64 9 231 241 248 261 6 221 256 266 329 24 92 327 342 46 313 81 110 73 41 46 327 48 162 205 191 173 168 167 168 173 174 173 176 175 176 179 184 188 194 199 203 206 203 201 199 197 199 201 203 201 199 198 196 198 202 205 207 207 204 205 204 203 204 207 210 208 206 210 211 205 207 211 208 209 209 207 207 203 205 208 210 211 210 213 219 223 218 210 210 209 193 175 181
58 76 99 269 209 197 210 216 257 202 218 276 340 50 129 141 321 333 2 31 58 72 32 9 11 17 92 145 153 159 162 165 170 174 171 168 168 171 178 182 185 190 196 201 207 210 208 207 205 202 200 201 204 204 201 200 199 199 203 207 210 212 209 208 209 208 208 209 210 211 210 212 215 211 209 211 211 212 212 212 213 208 212 218 217 219 219 221 224 225 219 211 212 210 200 190 182
104 117 120 225 200 213 232 233 254 180 158 237 333 82 130 157 204 40 35 334 36 87 19 7 36 25 66 121 142 154 161 166 173 176 177 177 177 179 183 187 192 195 199 203 208 212 214 214 213 211 206 205 206 206 204 203 203 203 204 208 212 214 214 213 213 213 214 213 212 213 213 214 217 218 215 214 215 215 215 215 217 215 220 226 222 223 225 227 229 229 221 212 213 215 211 206 194
171 132 138 236 214 232 272 265 245 228 150 126 351 9 93 199 213 69 156 177 48 153 190 58 82 176 143 136 146 155 163 169 176 180 184 189 191 192 192 194 199 203 206 209 211 213 217 219 220 220 217 214 212 209 208 207 207 207 208 210 213 216 217 218 218 218 218 218 218 216 216 217 220 221 218 216 217 217 217 216 216 216 223 228 223 223 229 232 232 231 225 213 214 217 214 214 208
200 148 176 230 199 207 261 256 247 252 138 133 82 42 77 283 147 104 148 138 302 249 213 194 192 182 173 172 161 162 167 173 180 185 190 195 199 202 204 206 208 212 213 214 215 215 217 222 223 224 224 222 220 216 213 213 212 211 212 213 216 218 221 222 223 223 222 222 222 221 219 220 221 220 217 215 215 216 216 215 216 215 219 227 225 223 227 231 232 230 226 217 217 219 215 216 217
191 204 194 221 168 196 249 242 254 263 86 88 76 86 119 297 43 142 145 155 243 238 219 204 184 174 177 177 171 170 173 178 185 190 194 200 205 208 212 215 216 219 219 219 221 220 219 221 224 225 225 225 226 225 223 222 219 218 218 218 220 221 223 225 226 226 225 224 224 224 222 222 221 219 217 215 215 216 217 218 219 218 219 225 227 225 226 229 229 227 225 219 219 224 221 220 223
216 258 210 233 203 210 251 219 242 222 101 104 147 148 133 50 314 211 158 188 224 227 215 207 188 177 176 171 170 176 182 188 193 196 199 202 207 210 214 216 219 220 221 224 226 226 224 222 224 225 226 226 227 229 230 229 226 226 225 224 225 225 226 227 228 228 227 226 226 226 224 223 220 219 219 218 218 219 221 222 224 225 223 225 225 225 228 232 231 225 224 222 221 225 227 226 229
231 260 251 250 222 217 244 227 223 177 154 190 166 99 146 170 268 210 187 231 240 245 236 230 191 168 164 165 175 188 191 195 201 203 204 205 209 212 214 217 219 221 223 226 227 227 226 223 223 224 225 226 227 228 230 231 230 230 230 230 231 231 231 230 230 231 230 229 230 229 227 226 223 221 222 222 222 223 225 225 226 230 231 231 229 229 232 236 238 231 224 223 222 223 227 230 233
241 237 244 251 236 236 240 225 211 185 175 176 130 138 231 210 208 162 228 254 253 239 237 240 151 149 157 172 184 195 198 204 209 211 212 213 215 216 217 219 220 221 224 227 226 226 226 224 223 223 225 225 226 228 229 231 230 230 231 232 233 234 235 234 234 233 232 232 232 231 229 229 228 226 225 225 225 225 226 225 227 231 235 238 238 238 237 236 240 235 226 224 224 224 226 229 233
227 219 236 241 258 266 237 203 215 216 198 159 157 237 257 237 215 264 241 243 242 208 191 169 141 149 171 182 187 195 198 208 213 215 218 220 220 221 222 222 221 223 227 229 228 229 227 223 223 224 225 225 226 227 229 230 230 230 231 232 234 234 236 237 236 235 233 233 233 232 231 231 232 230 228 228 227 227 226 226 228 232 237 241 243 243 240 236 238 235 227 226 225 224 226 226 230
256 227 252 244 255 276 237 208 233 251 265 190 193 236 263 272 234 263 259 247 233 177 187 186 155 169 187 191 195 196 198 206 210 213 219 223 223 225 226 224 223 227 229 230 231 232 230 225 224 224 225 226 226 226 228 230 231 232 232 233 234 235 236 237 236 236 236 235 235 235 233 232 233 232 231 230 230 229 228 229 233 236 240 244 247 245 238 236 238 234 229 229 228 225 226 226 227
299 297 306 280 267 277 253 252 244 221 274 201 188 241 275 319 241 227 251 259 242 196 207 200 186 198 196 201 205 198 207 212 209 209 214 219 221 223 226 225 225 228 229 230 234 233 232 230 227 226 225 226 226 227 228 229 232 234 234 235 235 236 237 237 237 237 237 237 237 237 236 233 231 231 231 232 232 231 232 235 238 241 244 246 249 245 237 237 238 233 232 233 231 228 229 227 226
288 271 297 294 301 288 246 253 223 175 218 190 156 300 280 252 237 229 241 253 253 235 229 209 208 219 208 209 211 205 218 217 207 209 216 219 222 223 225 228 227 228 230 233 235 234 234 233 230 229 227 226 228 229 229 230 232 234 235 236 237 237 237 238 239 238 238 238 238 238 238 236 233 231 232 233 234 235 237 240 243 246 249 249 250 246 238 239 237 234 234 233 231 229 230 228 227
271 245 222 273 303 286 239 227 177 173 204 163 141 281 256 233 246 245 245 247 247 251 250 232 216 219 218 216 215 218 222 216 207 215 221 223 225 226 228 233 231 230 234 234 235 236 236 235 232 231 228 228 230 230 231 231 233 234 235 237 237 237 237 238 240 240 240 240 239 239 239 238 237 235 233 234 236 238 241 243 246 248 250 250 250 247 241 239 238 238 237 234 231 229 230 230 229
264 235 203 210 240 266 258 213 154 171 225 146 143 249 256 255 260 250 246 239 230 241 249 244 233 222 219 218 214 223 224 215 215 220 225 228 230 230 231 236 234 233 235 235 236 238 236 235 233 231 230 231 232 232 232 233 235 235 236 237 237 237 237 238 240 241 242 241 241 241 241 240 239 238 236 236 237 239 243 246 248 249 250 250 248 248 245 242 240 241 241 236 233 232 233 233 234
178 214 234 202 209 265 296 259 169 180 236 152 157 238 266 269 260 250 248 232 211 233 251 252 250 240 227 226 218 222 229 223 223 227 230 233 234 233 234 237 236 234 235 236 238 238 236 236 234 233 232 233 233 234 234 235 237 237 237 237 237 238 238 238 240 241 243 243 243 242 242 241 240 240 239 238 239 241 244 248 250 250 249 248 247 246 246 245 242 243 243 239 236 235 235 235 236
245 207 231 213 206 238 305 295 213 187 191 192 199 232 266 269 262 266 273 223 201 223 251 251 246 243 232 229 225 224 233 235 233 235 236 237 238 237 238 240 239 238 238 238 238 237 237 237 234 234 234 235 236 236 235 236 238 238 238 237 237 239 239 239 240 241 243 243 243 243 242 242 241 241 241 241 241 243 246 250 253 252 249 246 245 244 246 247 244 243 243 241 238 238 238 237 237
235 213 227 231 198 185 207 278 257 195 194 220 219 226 242 254 266 287 291 195 179 214 245 251 248 247 239 230 231 231 230 235 237 235 237 239 240 241 240 241 242 242 242 241 240 239 240 239 236 236 236 237 238 237 237 238 238 238 238 238 239 240 240 241 241 241 242 243 243 243 242 241 242 243 243 243 243 246 249 251 254 253 250 246 244 245 246 248 245 242 243 242 240 239 240 239 237
213 211 212 235 216 195 196 235 245 193 209 229 221 228 243 253 259 266 269 208 166 224 243 254 257 252 251 244 236 235 233 237 240 237 239 240 241 242 242 242 243 243 243 243 243 241 241 240 238 238 238 237 237 238 238 237 237 237 238 238 239 240 240 240 241 241 242 242 243 243 241 241 242 244 245 244 244 246 249 251 252 253 252 247 245 245 246 245 243 241 241 243 243 241 241 241 241
199 200 190 200 215 233 217 232 246 188 216 244 230 235 240 248 253 248 256 253 227 252 265 266 261 253 252 252 246 244 240 239 241 240 241 243 243 243 243 243 243 244 245 244 243 242 240 240 238 238 239 238 236 236 235 235 234 235 236 236 237 238 239 239 240 241 241 242 243 242 241 241 242 243 245 245 245 246 248 250 250 251 251 249 247 245 243 242 241 240 241 243 244 243 243 242 244
148 173 202 208 215 253 254 257 275 189 209 249 231 239 242 241 251 244 243 256 259 267 272 265 258 253 246 244 249 247 241 243 247 246 244 244 245 246 245 243 242 243 244 244 243 242 241 240 238 238 241 238 233 232 232 231 230 231 232 232 235 238 237 237 238 239 240 242 243 242 241 242 242 243 244 244 245 246 247 247 248 247 247 249 248 246 244 243 243 242 242 243 243 243 243 242 242
201 182 231 244 229 253 251 249 288 214 193 258 245 249 255 247 256 259 246 245 253 251 253 256 249 249 250 244 249 249 251 260 260 258 253 249 248 249 247 243 240 240 242 243 242 243 243 241 239 240 242 238 235 233 231 231 231 231 231 232 236 237 237 237 237 239 240 242 242 242 242 243 243 243 243 242 242 243 245 246 245 244 244 246 248 247 245 244 243 242 241 241 241 240 241 242 239
219 229 239 256 227 256 268 267 315 325 209 266 285 271 262 251 253 261 247 221 235 237 233 242 242 244 249 243 246 249 254 263 260 261 260 257 255 255 253 247 242 241 242 243 243 244 242 241 240 241 241 239 239 237 232 233 235 235 235 237 238 238 239 240 240 241 242 242 242 242 243 243 243 243 243 242 240 241 242 244 244 243 243 243 244 245 244 243 242 240 238 237 237 238 240 241 237
209 215 223 243 193 148 257 274 325 307 245 253 304 305 271 256 258 261 247 219 224 237 233 240 241 237 243 244 246 244 244 250 254 256 258 259 259 257 255 251 247 244 243 243 242 242 241 242 243 242 241 241 241 240 237 237 238 238 238 239 240 241 243 244 244 244 243 243 243 243 243 243 243 242 242 241 240 240 241 242 243 243 243 242 243 243 243 243 241 240 238 235 234 234 236 237 236
207 207 211 224 209 192 224 270 320 311 289 254 315 305 270 238 245 257 254 224 216 231 234 246 252 242 246 258 260 246 239 242 247 249 251 253 255 255 253 253 253 249 246 247 246 244 243 244 246 245 244 243 242 241 241 239 236 236 236 236 239 242 245 243 242 243 242 243 243 243 243 243 242 241 241 240 240 240 241 241 241 242 243 243 242 243 243 244 243 241 238 235 232 231 234 236 235
216 214 213 213 205 208 213 196 349 310 288 263 146 284 274 225 229 245 247 234 228 226 225 236 249 249 245 255 257 248 243 242 242 247 252 253 254 256 258 258 258 256 254 255 255 252 249 248 248 247 246 244 243 242 241 238 234 233 232 231 232 234 238 238 236 239 240 242 243 244 243 243 242 242 241 241 241 241 242 242 241 241 242 243 242 243 244 244 244 242 239 237 235 233 234 236 236
232 216 208 210 204 207 203 167 169 236 263 267 166 232 271 289 244 245 238 241 247 242 236 238 243 253 250 246 248 248 248 247 246 251 255 254 254 257 260 262 260 259 261 263 263 262 258 254 250 248 248 247 247 244 242 239 235 233 231 231 233 233 236 240 240 241 243 244 246 246 245 244 243 243 242 242 242 242 242 243 242 242 243 243 243 243 244 245 244 243 241 239 238 236 232 234 238
240 227 189 201 203 207 195 168 194 220 268 296 224 195 263 273 250 238 216 235 265 259 252 251 245 249 250 246 248 250 250 247 242 244 247 248 248 247 251 257 260 264 273 277 275 273 271 266 259 252 251 252 252 249 245 242 239 237 234 234 236 237 240 245 247 247 247 248 248 249 248 247 246 245 245 244 243 243 242 243 243 243 244 244 244 243 244 245 245 245 243 240 239 237 232 232 237
251 142 160 187 193 201 189 172 208 217 126 265 237 156 247 266 248 234 213 217 255 252 241 243 242 243 246 252 254 251 252 251 244 247 253 253 248 247 251 260 269 278 288 295 293 292 292 284 275 264 261 261 259 255 250 247 246 243 240 237 238 241 244 247 250 251 252 251 250 251 250 250 249 247 246 246 245 244 242 243 243 243 244 244 244 244 245 246 245 244 243 241 239 237 235 234 236
214 134 103 89 106 126 169 183 199 185 192 237 221 170 218 265 231 205 209 212 235 246 245 238 239 246 250 257 258 257 265 270 261 252 254 258 258 260 263 268 280 301 334 342 336 329 322 311 301 292 287 284 275 265 256 252 250 247 244 241 242 245 247 248 250 251 252 251 251 252 251 250 250 248 248 247 246 245 243 243 243 243 244 245 245 245 246 246 246 244 243 242 240 238 237 235 236
145 125 91 74 58 56 70 156 161 176 222 237 221 185 199 256 240 188 202 198 204 217 242 249 250 258 259 257 259 268 276 264 249 241 243 256 261 265 274 322 41 44 29 2 347 333 322 317 310 305 305 305 298 283 267 260 256 251 248 247 247 249 251 250 249 249 250 249 250 251 251 251 250 250 250 249 247 246 244 243 243 244 245 246 246 246 247 246 246 245 244 243 241 240 239 237 237
133 117 115 115 67 36 46 35 157 203 233 241 220 181 185 233 241 205 230 223 204 200 212 233 242 252 259 261 269 274 258 244 236 228 225 222 141 82 71 68 63 51 38 27 13 352 332 322 310 303 305 308 307 296 282 275 268 260 256 254 252 254 254 252 251 251 250 249 250 252 252 251 251 251 250 250 249 247 244 243 243 244 245 246 246 247 247 247 246 246 245 243 242 241 240 239 238
134 125 149 155 165 180 176 202 207 219 245 265 213 164 177 236 241 227 246 250 234 215 205 214 225 238 254 264 277 279 257 249 223 187 159 120 99 63 62 70 68 60 53 48 42 31 18 359 331 324 332 328 309 296 288 283 278 274 270 265 261 260 258 256 255 255 255 253 253 253 253 253 252 252 251 250 251 250 246 244 244 244 245 246 247 247 247 247 247 246 245 244 243 242 241 240 238
172 158 171 178 177 182 195 202 209 235 243 266 203 168 190 265 250 222 228 234 227 215 206 212 220 237 249 254 268 269 260 256 220 168 146 127 113 84 87 88 80 74 67 58 55 50 43 41 28 15 17 9 342 314 294 286 282 281 280 276 274 270 266 263 261 260 260 258 256 256 256 256 255 255 255 255 256 255 250 248 248 247 248 248 248 248 248 248 247 246 245 244 244 244 243 242 240
185 168 167 190 190 192 199 198 196 205 212 161 167 183 193 213 243 226 222 229 230 221 216 226 233 243 248 247 244 241 245 252 230 152 136 141 137 125 111 102 96 96 87 70 63 61 60 60 56 47 44 40 29 15 350 327 312 299 290 284 282 279 276 273 269 267 265 263 261 260 259 259 258 258 259 260 261 259 255 253 251 250 251 250 249 248 248 247 247 245 244 244 245 245 245 243 243
193 149 137 206 205 169 180 192 171 145 93 122 185 233 218 216 285 277 244 258 257 251 255 248 250 253 248 239 221 213 212 233 230 144 144 157 145 133 122 113 110 110 106 92 76 69 69 68 66 62 56 50 42 32 21 8 355 342 325 309 298 291 286 282 278 274 271 268 266 264 262 262 261 261 262 262 262 261 260 258 255 253 253 252 251 250 249 248 247 245 244 244 245 245 246 245 244
173 188 180 178 111 122 136 278 105 102 121 205 187 232 272 276 291 278 266 288 281 260 255 244 246 250 239 226 215 202 188 191 192 166 162 162 148 144 142 133 122 116 118 120 100 80 75 71 66 65 56 46 38 25 19 13 5 359 353 342 329 316 303 294 288 284 280 276 272 268 266 265 263 263 262 262 262 262 261 260 258 256 255 254 252 251 250 249 247 246 244 244 245 246 247 246 246
145 188 173 110 48 88 121 183 147 133 208 228 193 214 228 211 258 280 253 257 258 249 245 245 250 245 231 232 230 219 195 176 174 171 162 153 149 156 161 155 145 134 127 124 115 100 57 61 43 35 36 28 20 10 7 5 359 358 358 354 348 339 327 315 304 296 291 284 278 273 270 268 267 265 264 264 263 262 261 261 259 258 257 255 254 253 251 250 248 247 246 246 247 247 247 248 247
152 169 157 143 204 221 187 178 189 182 204 234 213 222 217 195 227 249 216 228 239 243 247 255 253 240 229 241 248 249 226 179 167 163 153 149 154 164 169 166 159 147 133 119 98 37 317 287 297 329 342 343 348 345 344 349 348 348 351 352 350 346 339 329 318 308 299 291 286 282 277 273 272 270 268 266 265 263 262 261 259 258 257 256 255 253 252 251 249 247 247 247 247 247 247 248 248
97 146 162 173 201 212 194 186 198 191 203 226 212 217 225 213 221 224 225 227 222 228 247 246 239 236 234 235 227 227 218 191 182 166 155 156 161 168 169 161 144 121 96 71 37 13 357 313 290 312 320 315 321 323 323 331 335 338 342 344 344 342 338 331 324 316 307 299 294 291 286 282 279 276 273 270 267 265 264 262 261 259 257 256 255 253 252 250 249 247 246 247 247 246 246 247 247
151 167 185 197 201 204 165 190 190 157 190 223 221 224 243 235 216 217 230 233 211 214 235 234 235 251 252 242 223 204 190 192 198 170 154 155 162 173 172 160 133 91 65 46 13 358 358 349 308 306 317 309 309 320 326 327 327 328 332 337 339 338 335 330 325 321 315 309 304 300 296 292 287 282 278 274 271 269 267 265 263 261 259 258 256 254 252 250 248 247 246 246 246 245 245 246 247
175 187 192 196 194 165 175 214 181 124 190 204 206 234 251 241 211 210 225 233 220 214 223 229 237 246 252 253 231 198 179 180 179 158 154 163 176 181 177 169 134 64 50 40 17 357 352 350 338 315 319 316 316 331 337 333 330 328 329 333 335 334 332 329 327 326 322 319 316 312 308 303 296 291 286 280 276 274 272 269 266 264 262 261 259 257 255 251 248 247 246 246 246 244 244 246 246